EW8311 Weather Reports


time (UTC)temp
C
wind
direction
speed
KPH
gust
KPH
rain 1hr
cm
rain 24hr
cm
rain mn
cm
humidity
%
barometer
mb
20260503050037 24 316 6.4 17.7 0.00 0.00 0.00 30 1006.0
20260503044549 25 90 6.4 20.9 0.00 0.00 0.00 29 1005.9
20260503043037 25 52 8.0 19.3 0.00 0.00 0.00 28 1005.7
20260503041537 25 53 4.8 17.7 0.00 0.00 0.00 28 1005.4
20260503040046 25 108 4.8 20.9 0.00 0.00 0.00 27 1005.1
20260503034535 25 94 6.4 16.1 0.00 0.00 0.00 27 1005.0
20260503033041 25 48 8.0 20.9 0.00 0.00 0.00 26 1005.0
20260503031533 26 308 6.4 19.3 0.00 0.00 0.00 26 1004.9
20260503030035 26 72 6.4 12.9 0.00 0.00 0.00 25 1004.7
20260503024536 26 119 3.2 12.9 0.00 0.00 0.00 25 1004.5
20260503023030 26 72 4.8 11.3 0.00 0.00 0.00 24 1004.5
20260503021531 27 75 3.2 11.3 0.00 0.00 0.00 24 1004.5
20260503020030 27 68 4.8 11.3 0.00 0.00 0.00 22 1004.5
20260503014531 27 117 3.2 12.9 0.00 0.00 0.00 21 1004.5
20260503013029 28 101 0.0 6.4 0.00 0.00 0.00 21 1004.4
20260503011533 28 122 3.2 8.0 0.00 0.00 0.00 20 1004.5
20260503010033 28 100 3.2 11.3 0.00 0.00 0.00 20 1004.5
20260503004527 29 84 0.0 6.4 0.00 0.00 0.00 19 1004.3
20260503003028 29 98 1.6 11.3 0.00 0.00 0.00 18 1004.3
20260503001527 30 95 1.6 6.4 0.00 0.00 0.00 18 1004.4
20260503000026 30 138 8.0 17.7 0.00 0.00 0.00 17 1004.3
20260502234534 30 319 3.2 6.4 0.00 0.00 0.00 17 1004.3
20260502233025 30 347 3.2 8.0 0.00 0.00 0.00 17 1004.4
20260502231522 30 243 0.0 9.7 0.00 0.00 0.00 16 1004.7
20260502230022 31 97 1.6 4.8 0.00 0.00 0.00 15 1004.7
20260502224520 30 90 4.8 11.3 0.00 0.00 0.00 16 1004.8
20260502223018 30 117 1.6 8.0 0.00 0.00 0.00 16 1005.0
20260502221515 30 116 6.4 17.7 0.00 0.00 0.00 16 1005.2
20260502220021 30 110 4.8 9.7 0.00 0.00 0.00 17 1005.4
20260502214509 29 98 3.2 8.0 0.00 0.00 0.00 18 1005.8
20260502213021 30 129 1.6 12.9 0.00 0.00 0.00 18 1005.9
20260502211507 28 139 3.2 9.7 0.00 0.00 0.00 19 1006.1
20260502210006 29 116 4.8 25.7 0.00 0.00 0.00 20 1006.2
20260502204503 28 248 3.2 12.9 0.00 0.00 0.00 19 1006.4
20260502203002 30 97 4.8 14.5 0.00 0.00 0.00 18 1006.6
20260502201501 30 317 1.6 9.7 0.00 0.00 0.00 17 1006.8
20260502200101 30 322 1.6 6.4 0.00 0.00 0.00 17 1007.1
20260502194559 30 309 1.6 9.7 0.00 0.00 0.00 16 1007.4
20260502193056 29 101 8.0 19.3 0.00 0.00 0.00 19 1007.3
20260502191610 29 110 1.6 12.9 0.00 0.00 0.00 20 1007.5
20260502190105 28 112 6.4 16.1 0.00 0.00 0.00 23 1007.8
20260502184549 28 54 4.8 16.1 0.00 0.00 0.00 22 1008.1
20260502183057 27 82 9.7 19.3 0.00 0.00 0.00 24 1008.4
20260502181544 26 86 11.3 24.1 0.00 0.00 0.00 27 1008.6
20260502163048 24 109 12.9 27.4 0.00 0.00 0.00 32 1009.0
20260502161528 23 94 8.0 19.3 0.00 0.00 0.00 34 1008.8
20260502160128 23 74 6.4 24.1 0.00 0.00 0.00 35 1008.9
20260502151518 22 92 11.3 25.7 0.00 0.00 0.00 36 1008.6
20260502130105 20 103 4.8 19.3 0.00 0.00 0.00 36 1007.0
20260502123058 19 116 6.4 22.5 0.00 0.00 0.00 39 1006.8
20260502121549 18 63 1.6 14.5 0.00 0.00 0.00 39 1006.7
20260502114549 16 323 0.0 0.0 0.00 0.00 0.00 35 1006.9
20260502113048 15 314 1.6 4.8 0.00 0.00 0.00 37 1007.0
20260502111546 16 131 0.0 6.4 0.00 0.00 0.00 37 1007.2
20260502110042 16 94 0.0 3.2 0.00 0.00 0.00 38 1007.1
20260502104539 16 349 0.0 1.6 0.00 0.00 0.00 37 1006.9
20260502103038 16 349 0.0 1.6 0.00 0.00 0.00 35 1006.9
20260502101536 16 339 0.0 0.0 0.00 0.00 0.00 38 1006.8
20260502091533 17 339 0.0 3.2 0.00 0.00 0.00 36 1006.9
20260502071515 19 91 0.0 1.6 0.00 0.00 0.00 33 1006.9
20260502070014 18 91 0.0 1.6 0.00 0.00 0.00 37 1007.0
20260502064523 20 91 0.0 1.6 0.00 0.00 0.00 36 1006.9
20260502063011 21 94 0.0 3.2 0.00 0.00 0.00 29 1006.7
20260502061511 21 91 0.0 3.2 0.00 0.00 0.00 27 1006.5
20260502060013 21 95 0.0 4.8 0.00 0.00 0.00 27 1006.4
20260502054509 21 78 0.0 8.0 0.00 0.00 0.00 27 1006.3
20260502053009 23 326 0.0 9.7 0.00 0.00 0.00 25 1006.2
20260502051515 23 334 3.2 8.0 0.00 0.00 0.00 24 1006.0